Location: Chisholm
(54.9102°N, 114.1701°W)
Time: 03:42:26
(UTC+00:00)

ISS - Pass Details

Date: 30 November 2021
Orbit: 413 x 422 km, 51.6° (Epoch: 23 January)

Event Time Altitude Azimuth Distance (km) Brightness Sun altitude
Rises 01:17:37 0° 263° (W) 2,384 1.8 -16.5°
Reaches altitude 10° 01:19:45 10° 258° (WSW) 1,517 0.4 -16.8°
Maximum altitude 01:23:03 48° 183° (S) 562 -3.1 -17.3°
Enters shadow 01:24:05 34° 132° (SE) 713 -2.9 -17.4°
